Location: Kra?nica
(53.4833°N, 14.6167°E)
Time: 19:44:57
(UTC+00:00)

NPP - Pass Details

Date: 23 May 2024
Orbit: 826 x 827 km, 98.7° (Epoch: 21 June)

Event Time Altitude Azimuth Distance (km) Brightness Sun altitude
Rises 00:55:54 0° 16° (NNE) 3,382 8.7 -11.6°
Reaches altitude 10° 00:58:16 10° 18° (NNE) 2,444 7.6 -11.5°
Maximum altitude 01:03:41 77° 104° (ESE) 855 3.8 -11.1°
Enters shadow 01:08:41 12° 191° (S) 2,275 5.4 -10.7°
